Regional Weather Roundup
Issued by NWS

Home | Current Version | Previous Version | Graphics & Text | Print | Product List | Glossary On
Versions: 1 2 3 4 5 6 7 8 9 10 11 12 13 14 15 16 17 18 19 20 21 22 23 24 25 26 27 28 29 30 31 32 33 34 35 36 37 38 39 40 41 42 43 44 45 46 47 48 49 50
000
ASUS43 KLOT 230408
RWRIL

ILLINOIS REGIONAL WEATHER ROUNDUP
NATIONAL WEATHER SERVICE CHICAGO/ROMEOVILLE IL
1000 PM CST WED NOV 22 2017

NOTE: "FAIR" INDICATES FEW OR NO CLOUDS BELOW 12,000 FEET WITH NO
SIGNIFICANT WEATHER AND/OR OBSTRUCTIONS TO VISIBILITY.

* THESE STATIONS ARE NOT UNDER NWS QUALITY CONTROL. THEY ALSO MAY NOT
  REPORT WEATHER SUCH AS PRECIPITATION OR FOG.

ILZ001-002-007-009-015-016-024-230500-
NORTHWEST ILLINOIS

CITY           SKY/WX    TMP DP  RH WIND       PRES   REMARKS
MOLINE         CLOUDY    33  17  51 S7        30.16F WCI  27
STERLING*      CLOUDY    32  22  66 MISG      30.19
SAVANNA*       CLOUDY    32  19  59 S7        30.17F WCI  26
$$

ILZ003-004-008-010-011-017-018-230500-
NORTH CENTRAL ILLINOIS

CITY           SKY/WX    TMP DP  RH WIND       PRES   REMARKS
ROCKFORD       CLOUDY    31  18  58 S6        30.19F WCI  25
FREEPORT*      CLOUDY    31  20  63 S7        30.18R WCI  24
ROCHELLE*      CLOUDY    30  24  79 S7        30.19F WCI  23
DE KALB*       CLOUDY    29  23  79 S6        30.18F WCI  22
PERU*          CLOUDY    30  20  66 S7        30.20F WCI  23
$$

ILZ005-006-012>014-019>023-230500-
NORTHEAST ILLINOIS

CITY           SKY/WX    TMP DP  RH WIND       PRES   REMARKS
CHICAGO-OHARE  MOCLDY    31  18  58 SW7       30.18F WCI  24
CHICAGO-MIDWAY CLOUDY    32  18  56 SW9       30.20F WCI  24
AURORA         PTCLDY    28  21  75 S5        30.19F WCI  23
LANSING*       PTCLDY    27  22  81 S6        30.21F WCI  21
JOLIET*        PTCLDY    32  20  61 SW3       30.21S
WAUKEGAN       CLOUDY    30  19  63 SW10      30.16F WCI  21
DUPAGE AIRPORT CLOUDY    26  20  77 S6        30.18F WCI  19
KANKAKEE*      CLOUDY    30  20  67 S5        30.22F WCI  25
WHEELING       MOCLDY    32  18  56 SW6       30.20F WCI  26
MORRIS*        MOCLDY    29  20  69 SW5       30.21S WCI  24
ROMEOVILLE*    CLOUDY    29  20  70 S6        30.20S WCI  22
NORTHERLY ISL    N/A     32  16  52 S5          N/A  WCI  27
$$

LMZ740>746-230500-
SOUTHERN LAKE MICHIGAN

STATION/POSITION SKY/WX   TEMP    WIND        PRES    VSBY  WAVE
                          AIR SEA DIR/SP/G                  HT/PER
                          (F)     (DEG/KT/KT) (MB)    (MI)  (FT/S)
SOUTHERN BUOY              35 47  250/ 16/ 19 1022.6          2/ 3
HARRISON CRIB              34     210/ 11/ 12   N/A
BURNHAM HARBOR             32     190/  5/  8   N/A
CALUMET HARBOR             32     200/  5/  7 1022.0F
BURNS HARBOR               31     180/  7/  9 1023.4F
MICHIGAN CITY              31     190/  9/ 11   N/A
$$

ILZ025>027-034>036-040-047-049-050-058-095>099-230500-
WEST-CENTRAL ILLINOIS

CITY           SKY/WX    TMP DP  RH WIND       PRES   REMARKS
QUINCY         CLOUDY    32  19  58 S8        30.19F WCI  25
GALESBURG*     CLOUDY    30  23  73 S7        30.18F WCI  23
MACOMB*        CLOUDY    31  20  64 S7        30.21F WCI  24
JACKSONVILLE*  CLOUDY    32  19  59 S7        30.22F WCI  26
PITTSFIELD*    CLOUDY    33  20  58 S6        30.23F WCI  27
$$

ILZ028>032-037-038-041>044-048-051>054-059>061-230500-
CENTRAL ILLINOIS

CITY           SKY/WX    TMP DP  RH WIND       PRES   REMARKS
PONTIAC        CLOUDY    32  22  69 SW6       30.23R WCI  26
BLOOMINGTON    CLOUDY    30  21  69 S6        30.22F WCI  24
DECATUR        PTCLDY    29  22  75 S6        30.24F WCI  23
PEORIA         MOCLDY    30  20  66 S5        30.22F WCI  25
LACON*         CLOUDY    32  19  59 S3        30.20F
LINCOLN*       MOCLDY    32  22  67 S6        30.23F WCI  26
SPRINGFIELD    PTCLDY    33  22  63 S5        30.24F WCI  29
TAYLORVILLE    MOCLDY    30  24  77 S5        30.24F WCI  25
$$

ILZ033-039-045-046-055>057-062-063-230500-
EAST-CENTRAL ILLINOIS

CITY           SKY/WX    TMP DP  RH WIND       PRES   REMARKS
CHAMPAIGN      PTCLDY    29  23  78 S5        30.23F WCI  24
DANVILLE*      MOCLDY    27  24  87 CALM      30.21F
RANTOUL*       CLOUDY    31  26  80 S3        30.22F
MATTOON        MOCLDY    27  21  78 CALM      30.24F
PARIS*         CLOUDY    28  25  89 CALM      30.26F
$$

ILZ079-100>102-230500-
SOUTHWEST ILLINOIS

CITY           SKY/WX    TMP DP  RH WIND       PRES   REMARKS
ALTON          MOCLDY    28  23  80 CALM      30.26F
BELLEVILLE     PTCLDY    28  21  75 CALM      30.25F
CAHOKIA*       PTCLDY    30  19  63 S5        30.26F WCI  25
SPARTA*        CLOUDY    29  24  81 CALM      30.28F
$$

ILZ064>066-069>071-074>076-080>082-084>086-088>090-092>094-230500-
SOUTH-CENTRAL ILLINOIS

CITY           SKY/WX    TMP DP  RH WIND       PRES   REMARKS
CARBONDALE     CLOUDY    22  20  92 SE3       30.28R
CAIRO*         CLOUDY    25  21  85 NW3       30.28R
EFFINGHAM*     PTCLDY    28  25  90 CALM      30.28S
MARION         CLOUDY    27  22  84 CALM      30.30R
MT. VERNON     PTCLDY    25  22  88 CALM      30.28S
CENTRALIA*     PTCLDY    28  26  91 CALM      30.27S
SALEM*         MOCLDY    30  24  79 CALM      30.26F
METROPOLIS*    CLOUDY    27  22  82 CALM      30.27S
$$

ILZ067-068-072-073-078-083-087-091-230500-
SOUTHEAST ILLINOIS

CITY           SKY/WX    TMP DP  RH WIND       PRES   REMARKS
LAWRENCEVILLE  CLOUDY    30  24  78 CALM      30.27R
FLORA*         MOCLDY    29  24  82 CALM      30.27F
FAIRFIELD*     PTCLDY    26  23  88 CALM      30.27S
HARRISBURG*    CLOUDY    25  22  88 CALM      30.29R
ROBINSON*      MOCLDY    25  23  93 CALM      30.28S
CARMI*         CLOUDY    25  23  91 NW3       30.28R
$$

ABBREVIATIONS USED IN REMARKS
   TC - TEMPERATURE IN CELSIUS
  WCI - WIND CHILL INDEX
   HX - HEAT INDEX
  VSB - VISIBILITY
$$





USA.gov is the U.S. government's official web portal to all federal, state and local government web resources and services.